Location: Buckeye Ditch
(40.9104°N, 122.9517°W)
Time: 19:51:32
(UTC+00:00)

Vanguard 1 - Pass Details

Date: 22 May 2025
Orbit: 649 x 3822 km, 34.3° (Epoch: 15 June)

Event Time Altitude Azimuth Distance (km) Brightness Sun altitude
Rises 07:23:41 0° 274° (W) 4,814 13.8 -27.8°
Reaches altitude 10° 07:29:13 10° 252° (WSW) 3,164 12.6 -28.0°
Enters shadow 07:30:26 12° 244° (WSW) 2,878 12.3 -28.0°
